Location: Melbourne
(37.8170°S, 144.9670°E)
Time: 10:58:25
(UTC+10:00)

Transit 2A - All Passes

Search period start: 01 July 2016 00:00
Search period end: 11 July 2016 00:00
Orbit: 592 x 968 km, 66.7° (Epoch: 29 June)

Date Brightness Start Highest point End Pass type
(mag) Time Alt. Az. Time Alt. Az. Time Alt. Az.
01 Jul - 10:18:37 10° NNW 10:23:48 65° ENE 10:28:31 10° SE daylight
01 Jul - 12:04:18 10° W 12:07:17 16° SW 12:10:08 10° SSW daylight
01 Jul - 19:07:09 10° S 19:11:03 31° SE 19:15:05 10° ENE visible
01 Jul - 20:50:31 10° WSW 20:54:01 23° WNW 20:57:40 10° NNW visible
02 Jul - 09:44:59 10° N 09:49:53 42° ENE 09:54:24 10° SE daylight
02 Jul - 11:29:13 10° WNW 11:33:08 22° SW 11:36:50 10° S daylight
02 Jul - 18:33:38 10° S 18:36:58 21° SE 18:40:23 10° ENE visible
02 Jul - 20:16:07 10° SW 20:20:11 37° WNW 20:24:26 10° N visible
03 Jul - 09:11:40 10° NNE 09:16:01 27° ENE 09:20:05 10° SE daylight
03 Jul - 10:54:31 10° WNW 10:59:04 32° SW 11:03:17 10° S daylight
03 Jul - 18:00:26 10° SSE 18:02:49 14° SE 18:05:14 10° E visible
03 Jul - 19:41:57 10° SW 19:46:17 60° WNW 19:50:51 10° NNE visible
04 Jul - 08:38:46 10° NNE 08:42:11 18° ENE 08:45:26 10° ESE daylight
04 Jul - 10:20:06 10° NW 10:25:02 48° WSW 10:29:35 10° SSE daylight
04 Jul - 19:07:57 10° SSW 19:12:22 85° ESE 19:17:01 10° NNE visible
05 Jul - 08:06:54 10° ENE 08:08:23 11° ENE 08:09:52 10° E daylight
05 Jul - 09:45:55 10° NNW 09:51:04 74° WSW 09:55:45 10° SSE daylight
05 Jul - 18:34:06 10° SSW 18:38:24 53° ESE 18:42:55 10° NE visible
05 Jul - 20:19:00 10° WSW 20:21:06 13° WNW 20:23:15 10° NW visible
06 Jul - 09:11:58 10° NNW 09:17:07 73° ENE 09:21:49 10° SSE daylight
06 Jul - 10:58:07 10° W 11:00:40 14° SW 11:03:08 10° SSW daylight
06 Jul - 18:00:22 10° S 18:04:23 34° ESE 18:08:35 10° ENE visible
06 Jul - 19:43:57 10° WSW 19:47:18 21° WNW 19:50:48 10° NNW visible
07 Jul - 08:38:17 10° N 08:43:12 46° ENE 08:47:44 10° SE daylight
07 Jul - 10:22:52 10° W 10:26:31 20° SW 10:29:58 10° S daylight
07 Jul - 17:26:47 10° S 17:30:19 23° SE 17:33:58 10° ENE daylight
07 Jul - 19:09:29 10° SW 19:13:28 33° WNW 19:17:39 10° N visible
08 Jul - 08:04:52 10° N 08:09:20 30° ENE 08:13:28 10° SE daylight
08 Jul - 09:48:05 10° WNW 09:52:25 29° SW 09:56:28 10° S daylight
08 Jul - 16:53:28 10° S 16:56:12 16° SE 16:58:58 10° E daylight
08 Jul - 18:35:17 10° SW 18:39:35 53° WNW 18:44:09 10° N visible
09 Jul - 07:31:51 10° NNE 07:35:29 20° ENE 07:38:55 10° ESE daylight
09 Jul - 09:13:35 10° NW 09:18:23 43° WSW 09:22:49 10° SSE daylight
09 Jul - 16:20:55 10° SSE 16:21:59 11° SE 16:23:03 10° ESE daylight
09 Jul - 18:01:14 10° SSW 18:05:40 85° WNW 18:10:22 10° NNE visible
10 Jul - 06:59:36 10° NE 07:01:41 12° ENE 07:03:42 10° E visible
10 Jul - 08:39:21 10° NW 08:44:23 66° WSW 08:49:01 10° SSE daylight
10 Jul - 17:27:20 10° SSW 17:31:43 60° ESE 17:36:20 10° NE daylight
10 Jul - 19:12:45 10° W 19:14:22 12° WNW 19:16:02 10° NW visible
